Powrót do katalogu

USA 427

AktywnyMilitariaVLEO
NORAD 61650·PAYLOAD·🇺🇸 United States

Wystrzelony Oct 24, 2024 z Vandenberg Space Force Base

Loading…

Następne Przeloty (najbliższe 24 godziny)

TLE

NieaktualneSource: Mike McCants

Epoka: Aug 10, 2026, 20:44 UTC

1 61650U 24192G   26222.86448688 0.00000000  00000-0  00000-0 0    05
2 61650  70.0209 129.6669 0003000 244.0700 115.9299 14.96713715    07

Śledź USA 427 w czasie rzeczywistym z AllMySat

Download on the App Store